Content
SEND FEEDBACK

Daily
Averages
Monthly
Summary
Mexico

CANCUN, QUINTANA ROO


Home > North America > Mexico > Quintana Roo
Elevation: 9 meters     Latitude: 21 09N     Longitude: 086 49W

WEATHER
 
SELECT A DAY
Number of Records: 167,246;   Date Range: 1/1/95 - 11/27/14
 
SHARE

PRINT THIS DATA

[ ← Previous Day ]
WEATHER ALMANAC - 11 JANUARY, 2014
[ Next Day → ]
[ °F ]   °C
Weather ElementAverageHighLow
Temperature25.6 °C28 °C (8:43 am)21 °C (11:43 pm)
Dewpoint22.5 °C23 °C (1:45 am)21 °C (10:41 pm)
Humidity83.6 %100 % (9:46 pm)70 % (10:43 am)
Barometer1016.6 hPa1018.6 hPa (9:41 am)1013.2 hPa (2:48 am)
Wind Speed11.4 km/h22.2 km/h (9:41 am)
Weather ElementAverage
Visibility11.3 km
Wind DirectionESE (129.1 °)

Weather ElementTotal
Precipitation---
Cooling Degree Days6.2 (Base 18.3)
Growing Degree Days14.5 (Base 10)
Averaged from 23 records on 11 January, 2014
WEATHER CONDITIONS BREAKOUT
WIND DIRECTION BREAKOUT
WEATHER BY HOUR - 11 JANUARY, 2014
[ °F ]   °C
Local TimeTemperatureDewpointHumidityBarometerVisibilityWind DirectionWind SpeedGust SpeedPrecipitationEventsConditions
1:45 AM25 °C23 °C89 %1015.2 hPa11.3 kmSE (140°)13 km/hPartly Cloudy
2:48 AM25 °C23 °C89 %1013.2 hPa11.3 kmSE (140°)16.7 km/hPartly Cloudy
3:47 AM25 °C22 °C83 %1015.6 hPa11.3 kmSE (140°)11.1 km/hPartly Cloudy
4:46 AM25 °C23 °C89 %1015.9 hPa11.3 kmESE (120°)11.1 km/hPartly Cloudy
5:45 AM25 °C22 °C83 %1014.2 hPa11.3 kmSSE (150°)11.1 km/hPartly Cloudy
6:46 AM25 °C23 °C89 %1016.9 hPa11.3 kmESE (120°)9.3 km/hScattered Clouds
7:41 AM26 °C22 °C78 %1017.3 hPa11.3 kmSSE (150°)11.1 km/hMostly Cloudy
8:43 AM28 °C23 °C74 %1017.3 hPa11.3 kmSSE (150°)16.7 km/hMostly Cloudy
9:41 AM28 °C23 °C74 %1018.6 hPa11.3 kmSSE (150°)22.2 km/hMostly Cloudy
10:43 AM28 °C22 °C70 %1017.9 hPa11.3 kmSSE (150°)22.2 km/hMostly Cloudy
11:43 AM28 °C23 °C74 %1016.6 hPa11.3 kmSSE (150°)22.2 km/hMostly Cloudy
12:42 PM28 °C22 °C70 %1015.9 hPa11.3 kmSSE (150°)18.5 km/hMostly Cloudy
1:43 PM28 °C22 °C70 %1015.6 hPa11.3 kmSouth (170°)18.5 km/hMostly Cloudy
2:46 PM28 °C23 °C74 %1014.9 hPa11.3 kmSSE (150°)16.7 km/hMostly Cloudy
3:41 PM27 °C23 °C79 %1015.9 hPa11.3 kmSSE (150°)16.7 km/hMostly Cloudy
4:41 PM27 °C23 °C79 %1016.3 hPa11.3 kmSSE (150°)9.3 km/hScattered Clouds
5:41 PM26 °C23 °C83 %1015.9 hPa11.3 kmSE (140°)7.4 km/hPartly Cloudy
6:40 PM24 °C23 °C94 %1015.9 hPa11.3 kmCalmScattered Clouds
7:42 PM23 °C22 °C94 %1017.9 hPa11.3 kmCalmScattered Clouds
8:40 PM24 °C23 °C94 %1017.3 hPa11.3 kmSE (140°)5.6 km/hScattered Clouds
9:46 PM22 °C22 °C100 %1018.6 hPa11.3 kmCalmClear
10:41 PM22 °C21 °C94 %1018.6 hPa11.3 kmNorth (360°)3.7 km/hClear
11:43 PM21 °C21 °C100 %1016.9 hPa11.3 kmCalmPartly Cloudy
Hourly data recorded from MMUN, located 0 kilometers away from Cancun, Quintana Roo







STORIES FROM OUR PARTNERS